Location: R�serve Fauniques des Laurentides
(47.3100°N, 71.1900°W)
Time: 19:45:45
(UTC-04:00)

Amateur Radio Satellites - All Passes

Search period start: 02 September 2014 19:15
Search period end: 03 September 2014 19:15
Location: R�serve Fauniques des Laurentides, 47.3100°N, 71.1900°W

Satellite Date Start Highest point End Downlink Frequencies (MHz)
Time Altitude Azimuth
MaSat-1 02 Sep 19:37:26 19:38:08 10° 29° (NNE) 19:38:50 437.345 MHz
OPAL 02 Sep 19:43:54 19:45:39 12° 311° (NW) 19:47:23 ?
STRAND 1 02 Sep 19:51:26 19:56:34 90° 106° (ESE) 20:01:41 ?
HO-68 02 Sep 20:31:39 20:38:46 75° 69° (ENE) 20:45:54 435.675 MHz FM
UKube-1 02 Sep 20:53:39 20:57:53 53° 71° (ENE) 21:02:07 145.840 MHz, 145.915 MHz
Oscar 11 02 Sep 20:56:38 21:00:37 36° 68° (ENE) 21:04:38 145.825 FM, Beacon 2401.500 USB
MaSat-1 02 Sep 21:12:06 21:16:34 41° 52° (NE) 21:20:28 437.345 MHz
Saudisat 1A 02 Sep 21:20:18 21:23:45 23° 114° (ESE) 21:27:14 436.775 MHz
FUNcube-1 02 Sep 21:31:23 21:35:11 33° 67° (ENE) 21:39:04 145.950 - 145.970 MHz USB
STRAND 1 02 Sep 21:32:11 21:35:03 15° 304° (NW) 21:37:56 ?
KITSAT 1 02 Sep 21:52:11 21:58:23 25° 105° (ESE) 22:04:34 435.175 FM
Sapphire 02 Sep 22:10:58 22:12:17 11° 16° (NNE) 22:13:36 437.095 MHz 1200 baud AX-25 AFSK
HO-68 02 Sep 22:21:37 22:27:09 24° 269° (W) 22:32:44 435.675 MHz FM
UKube-1 02 Sep 22:31:32 22:34:25 17° 268° (W) 22:37:18 145.840 MHz, 145.915 MHz
Oscar 11 02 Sep 22:33:18 22:36:54 25° 266° (W) 22:40:31 145.825 FM, Beacon 2401.500 USB
PCSat 02 Sep 22:39:28 22:42:14 14° 24° (NNE) 22:44:59 145.825 MHz
MaSat-1 02 Sep 22:49:36 22:53:17 25° 255° (WSW) 22:56:33 437.345 MHz
Saudisat 1A 02 Sep 22:58:44 23:03:03 51° 313° (NW) 23:07:23 436.775 MHz
FUNcube-1 02 Sep 23:08:05 23:11:38 26° 266° (W) 23:15:17 145.950 - 145.970 MHz USB
KITSAT 1 02 Sep 23:44:45 23:52:52 85° 305° (NW) 00:01:02 435.175 FM
Sapphire 02 Sep 23:52:59 23:57:39 28° 41° (NE) 00:02:18 437.095 MHz 1200 baud AX-25 AFSK
PCSat 03 Sep 00:21:56 00:27:08 43° 48° (NE) 00:32:17 145.825 MHz
Saudisat 1A 03 Sep 00:41:15 00:43:38 14° 335° (NNW) 00:46:02 436.775 MHz
Oscar 16 03 Sep 01:03:13 01:06:02 15° 88° (E) 01:08:50 437.025 USB, Beacon 2401.1428
Sapphire 03 Sep 01:36:08 01:41:31 64° 241° (WSW) 01:46:52 437.095 MHz 1200 baud AX-25 AFSK
AO-27 03 Sep 01:38:08 01:40:28 13° 87° (E) 01:42:47 436.795 MHz FM
KITSAT 1 03 Sep 01:42:27 01:49:27 31° 330° (NNW) 01:56:29 435.175 FM
JAS-1B 03 Sep 01:58:54 02:03:46 21° 87° (E) 02:08:13 435.800 - 435.900 CW/SSB
Oscar 19 03 Sep 02:05:22 02:10:25 48° 99° (E) 02:15:25 437.125 CW, 437.150 USB
PCSat 03 Sep 02:05:33 02:10:29 36° 247° (WSW) 02:15:22 145.825 MHz
AO-Echo 03 Sep 02:06:12 02:09:59 24° 93° (E) 02:13:47 ?
SO-50 03 Sep 02:13:13 02:16:25 19° 112° (ESE) 02:19:40 436.795 FM
Gurwin Techsat 1B 03 Sep 02:24:47 02:28:08 17° 89° (E) 02:31:29 435.225 FM
Oscar 10/S400 03 Sep 02:38:16 03:42:53 35° 227° (SW) 08:05:23 145.825 - 145.975 CW/USB, Beacon 145.810 USB
Oscar 16 03 Sep 02:40:49 02:46:03 83° 286° (WNW) 02:51:15 437.025 USB, Beacon 2401.1428
ITAMSAT 1 03 Sep 02:45:33 02:50:36 49° 100° (E) 02:55:38 435.822 SSB
Uribyol 2 03 Sep 02:54:33 02:59:44 63° 102° (ESE) 03:04:53 436.500 FM
TMSAT-1 03 Sep 03:13:05 03:17:49 32° 95° (E) 03:22:32 436.925 FM
AO-27 03 Sep 03:15:29 03:20:43 89° 107° (ESE) 03:25:55 436.795 MHz FM
OPAL 03 Sep 03:42:07 03:47:02 51° 66° (ENE) 03:52:03 ?
KITSAT 1 03 Sep 03:42:09 03:47:50 20° 359° (N) 03:53:31 435.175 FM
AO-Echo 03 Sep 03:44:32 03:48:58 43° 291° (WNW) 03:53:26 ?
Oscar 19 03 Sep 03:45:13 03:49:31 27° 298° (WNW) 03:53:47 437.125 CW, 437.150 USB
JAS-1B 03 Sep 03:48:33 03:55:18 66° 291° (WNW) 04:01:08 435.800 - 435.900 CW/SSB
SO-50 03 Sep 03:52:04 03:56:31 62° 311° (NW) 04:01:07 436.795 FM
UOSAT-12 03 Sep 03:53:41 03:56:39 17° 111° (ESE) 03:59:39 437.025 FM, 437.400 FM
Gurwin Techsat 1B 03 Sep 04:03:23 04:08:42 75° 287° (WNW) 04:13:59 435.225 FM
Saudisat 1A 03 Sep 04:04:29 04:06:48 14° 25° (NNE) 04:09:07 436.775 MHz
Oscar 16 03 Sep 04:21:54 04:24:37 14° 305° (NW) 04:27:19 437.025 USB, Beacon 2401.1428
ITAMSAT 1 03 Sep 04:25:36 04:29:50 26° 298° (WNW) 04:34:05 435.822 SSB
AO-7 03 Sep 04:30:38 04:38:17 39° 97° (E) 04:45:52 29.400 - 29.500 MHz
Uribyol 2 03 Sep 04:34:55 04:38:47 22° 300° (WNW) 04:42:38 436.500 FM
Uosat F 03 Sep 04:37:54 04:42:31 36° 97° (E) 04:47:06 435.120 FM
TMSAT-1 03 Sep 04:52:54 04:57:49 39° 294° (WNW) 05:02:42 436.925 FM
AO-27 03 Sep 04:56:31 04:59:32 16° 304° (NW) 05:02:32 436.795 MHz FM
OPAL 03 Sep 05:22:06 05:26:12 24° 265° (W) 05:30:22 ?
UOSAT-12 03 Sep 05:31:37 05:36:15 74° 309° (NW) 05:41:00 437.025 FM, 437.400 FM
JAS-2 03 Sep 05:32:32 05:35:50 16° 90° (E) 05:39:17 435.800 - 435.900 CW/SSB, 435.910 FM
STRAND 1 03 Sep 05:32:38 05:36:51 27° 62° (ENE) 05:41:06 ?
SO-50 03 Sep 05:35:07 05:38:02 16° 334° (NNW) 05:41:00 436.795 FM
KITSAT 1 03 Sep 05:39:17 05:46:15 30° 29° (NNE) 05:53:10 435.175 FM
JAS-1B 03 Sep 05:41:04 05:44:25 14° 316° (NW) 05:47:34 435.800 - 435.900 CW/SSB
Saudisat 1A 03 Sep 05:43:06 05:47:26 50° 46° (NE) 05:51:43 436.775 MHz
Gurwin Techsat 1B 03 Sep 05:45:20 05:47:47 13° 306° (NW) 05:50:14 435.225 FM
Uosat F 03 Sep 06:16:49 06:21:15 33° 295° (WNW) 06:25:41 435.120 FM
AO-7 03 Sep 06:23:20 06:31:22 56° 298° (WNW) 06:39:21 29.400 - 29.500 MHz
Hamsat 03 Sep 06:35:23 06:39:43 59° 100° (E) 06:43:57 145.90 MHz
RS-15 03 Sep 06:51:35 07:01:55 49° 112° (ESE) 07:12:08 29.354 - 29.394 USB, Beacon 29.352 USB
STRAND 1 03 Sep 07:10:57 07:15:50 46° 261° (W) 07:20:45 ?
UOSAT-12 03 Sep 07:13:55 07:17:13 19° 331° (NNW) 07:20:33 437.025 FM, 437.400 FM
JAS-2 03 Sep 07:16:14 07:21:30 74° 287° (WNW) 07:27:10 435.800 - 435.900 CW/SSB, 435.910 FM
Saudisat 1A 03 Sep 07:23:12 07:26:45 24° 245° (WSW) 07:30:16 436.775 MHz
KITSAT 1 03 Sep 07:34:45 07:42:54 82° 54° (NE) 07:50:59 435.175 FM
HO-68 03 Sep 08:00:32 08:01:13 10° 82° (E) 08:01:54 435.675 MHz FM
SO-67 03 Sep 08:05:13 08:08:42 86° 283° (WNW) 08:12:10 435.3500 MHz FM
Hamsat 03 Sep 08:12:25 08:15:14 17° 299° (WNW) 08:18:01 145.90 MHz
AO-7 03 Sep 08:17:42 08:22:26 17° 321° (NW) 08:27:10 29.400 - 29.500 MHz
SO-50 03 Sep 09:00:35 09:03:15 15° 24° (NNE) 09:05:57 436.795 FM
ISS 03 Sep 09:01:58 09:04:30 20° 139° (SE) 09:07:03 145.800 FM
RS-15 03 Sep 09:03:11 09:14:03 61° 317° (NW) 09:24:55 29.354 - 29.394 USB, Beacon 29.352 USB
JAS-2 03 Sep 09:03:43 09:05:50 12° 306° (NW) 09:07:59 435.800 - 435.900 CW/SSB, 435.910 FM
KITSAT 1 03 Sep 09:31:08 09:37:27 26° 255° (WSW) 09:43:45 435.175 FM
HO-68 03 Sep 09:43:23 09:50:28 58° 102° (ESE) 09:57:30 435.675 MHz FM
UKube-1 03 Sep 10:14:44 10:19:04 64° 102° (ESE) 10:23:22 145.840 MHz, 145.915 MHz
Oscar 11 03 Sep 10:16:51 10:21:06 47° 99° (E) 10:25:18 145.825 FM, Beacon 2401.500 USB
ISS 03 Sep 10:37:36 10:40:56 80° 337° (NNW) 10:44:16 145.800 FM
UOSAT-12 03 Sep 10:39:15 10:41:35 13° 20° (NNE) 10:43:55 437.025 FM, 437.400 FM
SO-50 03 Sep 10:40:19 10:44:57 48° 46° (NE) 10:49:38 436.795 FM
FUNcube-1 03 Sep 10:52:55 10:57:20 47° 99° (E) 11:01:47 145.950 - 145.970 MHz USB
JAS-1B 03 Sep 11:03:53 11:04:16 10° 39° (NE) 11:04:38 435.800 - 435.900 CW/SSB
MaSat-1 03 Sep 11:06:25 11:07:28 11° 98° (E) 11:08:31 437.345 MHz
RS-15 03 Sep 11:19:33 11:29:06 33° 349° (N) 11:38:46 29.354 - 29.394 USB, Beacon 29.352 USB
HO-68 03 Sep 11:31:35 11:37:51 34° 302° (WNW) 11:44:06 435.675 MHz FM
Oscar 19 03 Sep 11:48:49 11:51:53 16° 56° (NE) 11:54:59 437.125 CW, 437.150 USB
UKube-1 03 Sep 11:52:06 11:54:48 16° 300° (WNW) 11:57:30 145.840 MHz, 145.915 MHz
Oscar 11 03 Sep 11:53:43 11:56:59 21° 297° (WNW) 12:00:14 145.825 FM, Beacon 2401.500 USB
ISS 03 Sep 12:14:48 12:17:57 38° 356° (N) 12:21:06 145.800 FM
UOSAT-12 03 Sep 12:18:32 12:23:01 40° 43° (NE) 12:27:27 437.025 FM, 437.400 FM
SO-50 03 Sep 12:21:14 12:25:21 29° 244° (WSW) 12:29:30 436.795 FM
Oscar 16 03 Sep 12:22:39 12:27:06 30° 63° (ENE) 12:31:35 437.025 USB, Beacon 2401.1428
ITAMSAT 1 03 Sep 12:29:52 12:33:07 17° 57° (ENE) 12:36:22 435.822 SSB
FUNcube-1 03 Sep 12:29:56 12:33:27 22° 296° (WNW) 12:37:00 145.950 - 145.970 MHz USB
Uribyol 2 03 Sep 12:38:10 12:41:55 21° 59° (ENE) 12:45:41 436.500 FM
MaSat-1 03 Sep 12:38:31 12:43:30 71° 116° (ESE) 12:48:39 437.345 MHz
JAS-1B 03 Sep 12:44:25 12:52:42 37° 60° (ENE) 13:00:00 435.800 - 435.900 CW/SSB
AO-27 03 Sep 12:58:33 13:02:56 29° 63° (ENE) 13:07:19 436.795 MHz FM
TMSAT-1 03 Sep 13:01:14 13:03:09 12° 52° (NE) 13:05:05 436.925 FM
AO-Echo 03 Sep 13:21:58 13:26:39 45° 69° (ENE) 13:31:14 ?
Oscar 19 03 Sep 13:25:21 13:30:32 87° 255° (WSW) 13:35:47 437.125 CW, 437.150 USB
RS-15 03 Sep 13:35:13 13:45:16 38° 23° (NNE) 13:55:33 29.354 - 29.394 USB, Beacon 29.352 USB
AO-7 03 Sep 13:44:03 13:49:36 20° 43° (NE) 13:55:08 29.400 - 29.500 MHz
Gurwin Techsat 1B 03 Sep 13:48:31 13:53:19 36° 65° (ENE) 13:58:08 435.225 FM
ISS 03 Sep 13:51:48 13:55:04 53° 16° (NNE) 13:58:21 145.800 FM
UOSAT-12 03 Sep 13:58:51 14:03:08 35° 243° (WSW) 14:07:21 437.025 FM, 437.400 FM
Oscar 16 03 Sep 14:01:25 14:06:18 42° 262° (W) 14:11:15 437.025 USB, Beacon 2401.1428
ITAMSAT 1 03 Sep 14:06:48 14:11:59 82° 256° (WSW) 14:17:11 435.822 SSB
Uribyol 2 03 Sep 14:15:49 14:20:56 65° 258° (WSW) 14:26:06 436.500 FM
MaSat-1 03 Sep 14:16:54 14:21:00 24° 316° (NW) 14:25:08 437.345 MHz
Uosat F 03 Sep 14:19:32 14:21:14 12° 53° (NE) 14:22:57 435.120 FM
JAS-1B 03 Sep 14:33:16 14:42:50 67° 258° (WSW) 14:51:12 435.800 - 435.900 CW/SSB
TMSAT-1 03 Sep 14:36:53 14:42:07 67° 72° (ENE) 14:47:23 436.925 FM
AO-27 03 Sep 14:37:19 14:42:15 44° 261° (W) 14:47:13 436.795 MHz FM
AO-Echo 03 Sep 15:01:35 15:05:37 25° 266° (W) 15:09:35 ?
Oscar 19 03 Sep 15:08:28 15:10:39 13° 274° (W) 15:12:51 437.125 CW, 437.150 USB
PCSat 03 Sep 15:08:39 15:12:17 19° 106° (ESE) 15:15:56 145.825 MHz
Gurwin Techsat 1B 03 Sep 15:28:26 15:33:17 36° 264° (W) 15:38:10 435.225 FM
ISS 03 Sep 15:28:38 15:31:45 38° 215° (SW) 15:34:52 145.800 FM
AO-7 03 Sep 15:32:44 15:40:58 68° 65° (ENE) 15:49:13 29.400 - 29.500 MHz
RS-15 03 Sep 15:48:14 15:59:21 84° 52° (NE) 16:10:52 29.354 - 29.394 USB, Beacon 29.352 USB
ITAMSAT 1 03 Sep 15:50:40 15:52:18 11° 274° (W) 15:53:57 435.822 SSB
JAS-2 03 Sep 15:51:28 15:53:11 11° 53° (NE) 15:54:51 435.800 - 435.900 CW/SSB, 435.910 FM
Uosat F 03 Sep 15:54:10 15:59:08 70° 72° (ENE) 16:04:08 435.120 FM
TMSAT-1 03 Sep 16:18:53 16:22:32 19° 270° (W) 16:26:12 436.925 FM
Sapphire 03 Sep 16:20:43 16:26:02 63° 118° (ESE) 16:31:25 437.095 MHz 1200 baud AX-25 AFSK
JAS-1B 03 Sep 16:29:21 16:34:34 16° 276° (W) 16:39:30 435.800 - 435.900 CW/SSB
PCSat 03 Sep 16:49:40 16:55:05 77° 305° (NW) 17:00:33 145.825 MHz
AO-7 03 Sep 17:27:11 17:34:21 31° 266° (W) 17:41:33 29.400 - 29.500 MHz
OPAL 03 Sep 17:27:21 17:32:35 69° 105° (ESE) 17:37:46 ?
Hamsat 03 Sep 17:31:29 17:35:45 62° 73° (ENE) 17:40:06 145.90 MHz
JAS-2 03 Sep 17:31:39 17:37:27 67° 72° (ENE) 17:42:44 435.800 - 435.900 CW/SSB, 435.910 FM
Uosat F 03 Sep 17:35:17 17:38:26 17° 270° (W) 17:41:36 435.120 FM
RS-15 03 Sep 18:01:28 18:10:33 31° 255° (WSW) 18:19:56 29.354 - 29.394 USB, Beacon 29.352 USB
Sapphire 03 Sep 18:05:14 18:09:53 28° 319° (NW) 18:14:34 437.095 MHz 1200 baud AX-25 AFSK
HO-68 03 Sep 18:31:48 18:35:36 15° 45° (NE) 18:39:24 435.675 MHz FM
PCSat 03 Sep 18:35:31 18:39:25 20° 327° (NNW) 18:43:21 145.825 MHz
SO-67 03 Sep 18:41:04 18:44:25 49° 73° (ENE) 18:47:48 435.3500 MHz FM
OPAL 03 Sep 19:07:09 19:10:59 21° 304° (WNW) 19:14:47 ?
Hamsat 03 Sep 19:09:40 19:12:09 15° 271° (W) 19:14:39 145.90 MHz
